| time (UTC) | temp F | wind direction | speed knots | gust knots | rain 1hr in | rain 24hr in | rain mn in | humidity % | barometer mb |
| 20260510234102 | 79 | 270 | 0.9 | 0.9 | 0.00 | 0.00 | 0.00 | 50 | 1013.3 |
| 20260510233101 | 79 | 268 | 0.9 | 1.7 | 0.00 | 0.00 | 0.00 | 49 | 1013.5 |
| 20260510232059 | 80 | 262 | 1.7 | 2.6 | 0.00 | 0.00 | 0.00 | 46 | 1013.3 |
| 20260510231059 | 81 | 277 | 3.5 | 5.2 | 0.00 | 0.00 | 0.00 | 44 | 1013.1 |
| 20260510230058 | 81 | 273 | 3.5 | 5.2 | 0.00 | 0.00 | 0.00 | 43 | 1013.0 |
| 20260510225056 | 81 | 246 | 1.7 | 4.3 | 0.00 | 0.00 | 0.00 | 45 | 1013.0 |
| 20260510224055 | 82 | 260 | 2.6 | 4.3 | 0.00 | 0.00 | 0.00 | 43 | 1013.0 |
| 20260510223049 | 82 | 287 | 5.2 | 6.1 | 0.00 | 0.00 | 0.00 | 42 | 1013.0 |
| 20260510222049 | 82 | 258 | 4.3 | 5.2 | 0.00 | 0.00 | 0.00 | 44 | 1013.0 |
| 20260510221046 | 83 | 266 | 4.3 | 6.1 | 0.00 | 0.00 | 0.00 | 42 | 1012.7 |
| 20260510220044 | 83 | 264 | 2.6 | 2.6 | 0.00 | 0.00 | 0.00 | 45 | 1012.7 |
| 20260510215040 | 83 | 271 | 4.3 | 5.2 | 0.00 | 0.00 | 0.00 | 44 | 1013.0 |
| 20260510214038 | 83 | 253 | 1.7 | 2.6 | 0.00 | 0.00 | 0.00 | 46 | 1012.8 |
| 20260510213037 | 82 | 283 | 2.6 | 4.3 | 0.00 | 0.00 | 0.00 | 48 | 1012.6 |
| 20260510212037 | 81 | 277 | 2.6 | 4.3 | 0.00 | 0.00 | 0.00 | 47 | 1012.6 |
| 20260510211034 | 83 | 257 | 2.6 | 6.1 | 0.00 | 0.00 | 0.00 | 47 | 1012.8 |
| 20260510210032 | 83 | 303 | 5.2 | 6.1 | 0.00 | 0.00 | 0.00 | 45 | 1012.8 |
| 20260510205027 | 81 | 280 | 3.5 | 5.2 | 0.00 | 0.00 | 0.00 | 47 | 1012.6 |
| 20260510204026 | 84 | 305 | 2.6 | 4.3 | 0.00 | 0.00 | 0.00 | 45 | 1012.5 |
| 20260510203026 | 84 | 167 | 2.6 | 2.6 | 0.00 | 0.00 | 0.00 | 45 | 1012.8 |
| 20260510202022 | 84 | 278 | 0.0 | 1.7 | 0.00 | 0.00 | 0.00 | 48 | 1012.9 |
| 20260510201021 | 84 | 166 | 2.6 | 4.3 | 0.00 | 0.00 | 0.00 | 50 | 1012.7 |
| 20260510200021 | 83 | 246 | 0.9 | 0.9 | 0.00 | 0.00 | 0.00 | 51 | 1012.8 |
| 20260510195020 | 83 | 237 | 2.6 | 2.6 | 0.00 | 0.00 | 0.00 | 51 | 1012.9 |
| 20260510194018 | 81 | 283 | 2.6 | 5.2 | 0.00 | 0.00 | 0.00 | 50 | 1012.8 |
| 20260510193014 | 82 | 276 | 3.5 | 6.1 | 0.00 | 0.00 | 0.00 | 53 | 1012.9 |
| 20260510192011 | 83 | 327 | 3.5 | 5.2 | 0.00 | 0.00 | 0.00 | 50 | 1013.3 |
| 20260510191010 | 83 | 244 | 2.6 | 4.3 | 0.00 | 0.00 | 0.00 | 53 | 1013.4 |
| 20260510190010 | 84 | 263 | 4.3 | 6.1 | 0.00 | 0.00 | 0.00 | 53 | 1013.5 |
| 20260510185010 | 82 | 222 | 0.9 | 1.7 | 0.00 | 0.00 | 0.00 | 56 | 1013.8 |
| 20260510184008 | 81 | 313 | 0.0 | 0.0 | 0.00 | 0.00 | 0.00 | 56 | 1013.3 |
| 20260510183005 | 81 | 322 | 2.6 | 5.2 | 0.00 | 0.00 | 0.00 | 53 | 1013.6 |
| 20260510182002 | 80 | 265 | 0.0 | 0.0 | 0.00 | 0.00 | 0.00 | 53 | 1013.8 |
| 20260510181002 | 80 | 208 | 1.7 | 1.7 | 0.00 | 0.00 | 0.00 | 56 | 1013.7 |
| 20260510180003 | 81 | 212 | 2.6 | 4.3 | 0.00 | 0.00 | 0.00 | 55 | 1013.8 |
| 20260510175000 | 83 | 232 | 3.5 | 4.3 | 0.00 | 0.00 | 0.00 | 55 | 1013.6 |
| 20260510174001 | 79 | 29 | 0.0 | 1.7 | 0.00 | 0.00 | 0.00 | 57 | 1013.8 |
| 20260510172959 | 79 | 62 | 1.7 | 2.6 | 0.00 | 0.00 | 0.00 | 57 | 1013.7 |
| 20260510171957 | 80 | 311 | 0.9 | 1.7 | 0.00 | 0.00 | 0.00 | 57 | 1013.8 |
| 20260510170957 | 80 | 242 | 0.9 | 2.6 | 0.00 | 0.00 | 0.00 | 55 | 1014.0 |
| 20260510165954 | 81 | 322 | 1.7 | 4.3 | 0.00 | 0.00 | 0.00 | 54 | 1014.0 |
| 20260510164953 | 80 | 318 | 0.9 | 0.9 | 0.00 | 0.00 | 0.00 | 53 | 1014.0 |
| 20260510163952 | 80 | 190 | 0.9 | 4.3 | 0.00 | 0.00 | 0.00 | 52 | 1014.1 |
| 20260510162949 | 80 | 140 | 3.5 | 6.1 | 0.00 | 0.00 | 0.00 | 54 | 1014.1 |
| 20260510161948 | 80 | 66 | 2.6 | 5.2 | 0.00 | 0.00 | 0.00 | 54 | 1014.0 |
| 20260510160947 | 79 | 296 | 0.9 | 2.6 | 0.00 | 0.00 | 0.00 | 57 | 1014.4 |
| 20260510155942 | 79 | 40 | 3.5 | 4.3 | 0.00 | 0.00 | 0.00 | 58 | 1014.5 |
| 20260510154942 | 79 | 192 | 0.9 | 4.3 | 0.00 | 0.00 | 0.00 | 61 | 1014.6 |
| 20260510153937 | 79 | 16 | 0.0 | 0.9 | 0.00 | 0.00 | 0.00 | 66 | 1014.5 |
| 20260510152937 | 79 | 26 | 1.7 | 4.3 | 0.00 | 0.00 | 0.00 | 64 | 1014.5 |
| 20260510151937 | 77 | 303 | 1.7 | 1.7 | 0.00 | 0.00 | 0.00 | 67 | 1014.4 |
| 20260510150935 | 77 | 270 | 0.9 | 2.6 | 0.00 | 0.00 | 0.00 | 65 | 1014.5 |
| 20260510145933 | 77 | 39 | 0.9 | 2.6 | 0.00 | 0.00 | 0.00 | 68 | 1014.4 |
| 20260510144933 | 76 | 263 | 0.0 | 2.6 | 0.00 | 0.00 | 0.00 | 72 | 1014.4 |
| 20260510143931 | 76 | 264 | 1.7 | 4.3 | 0.00 | 0.00 | 0.00 | 72 | 1014.4 |
| 20260510142930 | 74 | 226 | 2.6 | 2.6 | 0.00 | 0.00 | 0.00 | 75 | 1014.5 |
| 20260510141929 | 74 | 264 | 3.5 | 4.3 | 0.00 | 0.00 | 0.00 | 77 | 1014.4 |
| 20260510140923 | 73 | 264 | 2.6 | 4.3 | 0.00 | 0.00 | 0.00 | 78 | 1014.4 |
| 20260510135918 | 73 | 273 | 1.7 | 2.6 | 0.00 | 0.00 | 0.00 | 79 | 1014.5 |
| 20260510134918 | 73 | 247 | 0.9 | 2.6 | 0.00 | 0.00 | 0.00 | 80 | 1014.3 |
| 20260510133916 | 71 | 230 | 1.7 | 2.6 | 0.00 | 0.00 | 0.00 | 83 | 1014.3 |
| 20260510132914 | 70 | 246 | 0.9 | 4.3 | 0.00 | 0.00 | 0.00 | 85 | 1014.3 |
| 20260510131909 | 69 | 228 | 3.5 | 4.3 | 0.00 | 0.00 | 0.00 | 86 | 1014.3 |
| 20260510130908 | 69 | 234 | 2.6 | 4.3 | 0.00 | 0.00 | 0.00 | 88 | 1014.1 |
| 20260510125908 | 68 | 297 | 2.6 | 5.2 | 0.00 | 0.00 | 0.00 | 90 | 1014.2 |
| 20260510124908 | 66 | 252 | 3.5 | 4.3 | 0.00 | 0.00 | 0.00 | 92 | 1014.3 |
| 20260510123906 | 66 | 244 | 1.7 | 2.6 | 0.00 | 0.00 | 0.00 | 94 | 1014.1 |
| 20260510122904 | 65 | 288 | 0.9 | 4.3 | 0.00 | 0.00 | 0.00 | 96 | 1014.1 |
| 20260510121901 | 64 | 277 | 1.7 | 4.3 | 0.00 | 0.00 | 0.00 | 97 | 1014.3 |
| 20260510120856 | 63 | 246 | 2.6 | 4.3 | 0.00 | 0.00 | 0.00 | 97 | 1014.1 |
| 20260510115854 | 63 | 262 | 0.9 | 2.6 | 0.00 | 0.00 | 0.00 | 97 | 1013.5 |
| 20260510114853 | 63 | 278 | 1.7 | 2.6 | 0.00 | 0.00 | 0.00 | 97 | 1013.6 |
| 20260510113851 | 63 | 279 | 1.7 | 2.6 | 0.00 | 0.00 | 0.00 | 97 | 1013.5 |
| 20260510112850 | 62 | 295 | 2.6 | 2.6 | 0.00 | 0.00 | 0.00 | 97 | 1013.2 |
| 20260510111848 | 62 | 285 | 1.7 | 1.7 | 0.00 | 0.00 | 0.00 | 97 | 1013.4 |
| 20260510110845 | 62 | 247 | 1.7 | 4.3 | 0.00 | 0.00 | 0.00 | 97 | 1013.4 |
| 20260510105845 | 62 | 240 | 1.7 | 2.6 | 0.00 | 0.00 | 0.00 | 97 | 1013.2 |
| 20260510104841 | 62 | 241 | 0.0 | 1.7 | 0.00 | 0.00 | 0.00 | 97 | 1013.0 |
| 20260510103840 | 61 | 240 | 0.0 | 0.0 | 0.00 | 0.00 | 0.00 | 97 | 1012.7 |
| 20260510102838 | 62 | 236 | 0.9 | 2.6 | 0.00 | 0.00 | 0.00 | 97 | 1012.6 |
| 20260510101837 | 61 | 251 | 0.0 | 1.7 | 0.00 | 0.00 | 0.00 | 97 | 1012.6 |
| 20260510100837 | 61 | 241 | 0.0 | 0.0 | 0.00 | 0.00 | 0.00 | 97 | 1012.2 |
| 20260510095838 | 62 | 245 | 0.9 | 4.3 | 0.00 | 0.00 | 0.00 | 97 | 1012.3 |
| 20260510094832 | 61 | 260 | 0.0 | 0.9 | 0.00 | 0.00 | 0.00 | 97 | 1012.0 |
| 20260510093830 | 60 | 246 | 0.0 | 0.0 | 0.00 | 0.00 | 0.00 | 97 | 1012.1 |
| 20260510092828 | 60 | 211 | 0.0 | 0.0 | 0.00 | 0.00 | 0.00 | 97 | 1011.8 |
| 20260510091826 | 60 | 217 | 0.0 | 0.0 | 0.00 | 0.00 | 0.00 | 97 | 1012.0 |
| 20260510090825 | 60 | 239 | 0.0 | 0.0 | 0.00 | 0.00 | 0.00 | 97 | 1011.8 |
| 20260510085824 | 60 | 238 | 0.0 | 0.0 | 0.00 | 0.00 | 0.00 | 97 | 1011.6 |
| 20260510084820 | 61 | 232 | 0.0 | 1.7 | 0.00 | 0.00 | 0.00 | 96 | 1011.5 |
| 20260510083820 | 61 | 231 | 0.9 | 1.7 | 0.00 | 0.00 | 0.00 | 97 | 1011.6 |
| 20260510082818 | 62 | 236 | 0.9 | 1.7 | 0.00 | 0.00 | 0.00 | 96 | 1011.4 |
| 20260510081814 | 62 | 234 | 0.9 | 1.7 | 0.00 | 0.00 | 0.00 | 96 | 1011.3 |
| 20260510080812 | 62 | 211 | 1.7 | 1.7 | 0.00 | 0.00 | 0.00 | 96 | 1011.3 |
| 20260510075810 | 62 | 283 | 2.6 | 2.6 | 0.00 | 0.00 | 0.00 | 97 | 1011.2 |
| 20260510074810 | 62 | 267 | 0.0 | 0.0 | 0.00 | 0.00 | 0.00 | 97 | 1011.3 |
| 20260510073809 | 62 | 260 | 0.0 | 0.0 | 0.00 | 0.00 | 0.00 | 97 | 1011.2 |
| 20260510072807 | 62 | 250 | 0.0 | 0.0 | 0.00 | 0.00 | 0.00 | 97 | 1011.2 |
| 20260510071806 | 62 | 270 | 0.0 | 0.0 | 0.00 | 0.00 | 0.00 | 97 | 1011.4 |
| 20260510070802 | 61 | 254 | 0.0 | 0.0 | 0.00 | 0.00 | 0.00 | 97 | 1011.3 |
| 20260510065758 | 62 | 212 | 0.0 | 0.0 | 0.00 | 0.00 | 0.00 | 97 | 1011.2 |
| 20260510064758 | 61 | 212 | 0.0 | 0.0 | 0.00 | 0.00 | 0.00 | 97 | 1011.2 |
| 20260510063757 | 60 | 211 | 0.0 | 0.0 | 0.00 | 0.00 | 0.00 | 97 | 1011.2 |
| 20260510062756 | 61 | 199 | 1.7 | 1.7 | 0.00 | 0.00 | 0.00 | 96 | 1011.2 |
| 20260510061753 | 63 | 271 | 0.0 | 0.0 | 0.00 | 0.00 | 0.00 | 96 | 1010.8 |
| 20260510060752 | 63 | 287 | 1.7 | 1.7 | 0.00 | 0.00 | 0.00 | 97 | 1010.9 |
| 20260510055752 | 63 | 263 | 0.0 | 0.0 | 0.00 | 0.00 | 0.00 | 97 | 1011.2 |
| 20260510054749 | 63 | 262 | 1.7 | 2.6 | 0.00 | 0.00 | 0.00 | 97 | 1011.3 |
| 20260510053745 | 63 | 277 | 0.9 | 2.6 | 0.00 | 0.00 | 0.00 | 97 | 1011.4 |
| 20260510052743 | 63 | 273 | 0.0 | 0.0 | 0.00 | 0.00 | 0.00 | 97 | 1011.5 |
| 20260510051742 | 63 | 263 | 0.0 | 0.0 | 0.00 | 0.00 | 0.00 | 97 | 1011.8 |
| 20260510050741 | 64 | 262 | 0.9 | 1.7 | 0.00 | 0.00 | 0.00 | 96 | 1011.6 |
| 20260510045741 | 63 | 267 | 0.0 | 0.0 | 0.00 | 0.00 | 0.00 | 97 | 1011.6 |
| 20260510044740 | 63 | 247 | 0.0 | 0.0 | 0.00 | 0.00 | 0.00 | 97 | 1011.8 |
| 20260510043739 | 63 | 247 | 0.9 | 1.7 | 0.00 | 0.00 | 0.00 | 97 | 1011.8 |
| 20260510042734 | 64 | 231 | 0.0 | 0.0 | 0.00 | 0.00 | 0.00 | 96 | 1011.7 |
| 20260510041732 | 64 | 244 | 0.0 | 0.0 | 0.00 | 0.00 | 0.00 | 97 | 1011.7 |
| 20260510040733 | 64 | 246 | 0.0 | 0.0 | 0.00 | 0.00 | 0.00 | 97 | 1011.5 |
| 20260510035730 | 64 | 252 | 0.9 | 1.7 | 0.00 | 0.00 | 0.00 | 97 | 1011.5 |
| 20260510034728 | 64 | 240 | 0.9 | 1.7 | 0.00 | 0.00 | 0.00 | 97 | 1011.4 |
| 20260510033728 | 63 | 241 | 0.9 | 1.7 | 0.00 | 0.00 | 0.00 | 97 | 1011.4 |
| 20260510032728 | 62 | 235 | 0.0 | 0.0 | 0.00 | 0.00 | 0.00 | 97 | 1011.2 |
| 20260510031725 | 62 | 233 | 0.0 | 0.0 | 0.00 | 0.00 | 0.00 | 97 | 1011.2 |
| 20260510030720 | 61 | 232 | 0.0 | 0.0 | 0.00 | 0.00 | 0.00 | 97 | 1011.4 |
| 20260510025716 | 62 | 226 | 0.0 | 0.0 | 0.00 | 0.00 | 0.00 | 97 | 1011.2 |
| 20260510024716 | 63 | 235 | 0.0 | 0.0 | 0.00 | 0.00 | 0.00 | 97 | 1011.1 |
| 20260510023714 | 62 | 234 | 0.0 | 0.0 | 0.00 | 0.00 | 0.00 | 97 | 1011.3 |
| 20260510022713 | 62 | 234 | 0.0 | 0.0 | 0.00 | 0.00 | 0.00 | 97 | 1010.9 |
| 20260510021709 | 63 | 234 | 0.0 | 0.0 | 0.00 | 0.00 | 0.00 | 97 | 1010.9 |
| 20260510020707 | 63 | 234 | 0.0 | 0.0 | 0.00 | 0.00 | 0.00 | 97 | 1010.8 |
| 20260510015704 | 63 | 234 | 0.0 | 0.0 | 0.00 | 0.00 | 0.00 | 97 | 1010.8 |
| 20260510014701 | 63 | 234 | 0.0 | 0.0 | 0.00 | 0.00 | 0.00 | 97 | 1010.7 |
| 20260510013659 | 64 | 234 | 0.0 | 0.0 | 0.00 | 0.00 | 0.00 | 96 | 1010.6 |
| 20260510012655 | 64 | 234 | 0.0 | 0.0 | 0.00 | 0.00 | 0.00 | 96 | 1010.4 |
| 20260510011652 | 64 | 233 | 0.0 | 0.0 | 0.00 | 0.00 | 0.00 | 96 | 1010.4 |
| 20260510010650 | 64 | 233 | 0.0 | 0.0 | 0.00 | 0.00 | 0.00 | 95 | 1010.3 |
| 20260510005649 | 65 | 232 | 0.0 | 0.0 | 0.00 | 0.00 | 0.00 | 95 | 1010.2 |
| 20260510004644 | 65 | 231 | 0.0 | 0.0 | 0.00 | 0.00 | 0.00 | 93 | 1010.0 |
| 20260510003639 | 66 | 231 | 0.0 | 0.0 | 0.00 | 0.00 | 0.00 | 92 | 1010.2 |
| 20260510002634 | 66 | 244 | 0.0 | 0.0 | 0.00 | 0.00 | 0.00 | 91 | 1010.2 |
| 20260510001634 | 68 | 252 | 0.0 | 0.0 | 0.00 | 0.00 | 0.00 | 89 | 1010.1 |
| 20260510000633 | 68 | 254 | 0.0 | 0.0 | 0.00 | 0.00 | 0.00 | 86 | 1010.0 |
| 20260509235632 | 69 | 253 | 0.0 | 0.0 | 0.00 | 0.00 | 0.00 | 85 | 1009.9 |